Regional Weather Roundup
Issued by NWS

Home | Current Version | Previous Version | Graphics & Text | Print | Product List | Glossary On
Versions: 1 2 3 4 5 6 7 8 9 10 11 12 13 14 15 16 17 18 19 20 21 22 23 24 25 26 27 28 29 30 31 32 33 34 35 36 37 38 39 40 41 42 43 44 45 46 47 48 49 50
397
ASUS45 KBOU 301107
RWRCO

WEATHER ROUNDUP FOR COLORADO
NATIONAL WEATHER SERVICE DENVER/BOULDER CO
500 AM MDT MON MAY 30 2016

NOTE: "FAIR" INDICATES FEW OR NO CLOUDS BELOW 12000 FEET WITH NO
SIGNIFICANT WEATHER AND/OR OBSTRUCTIONS TO VISIBILITY.

COZ001>005-013-030-031-301200-
...NORTHWEST COLORADO...

CITY           SKY/WX    TMP DP  RH WIND       PRES   REMARKS
CRAIG          FAIR      39  35  86 CALM      30.15R
HAYDEN         CLOUDY    45  34  65 E9        30.15R
MEEKER         FAIR      39  34  82 NE5       30.14S
MOUNT WERNER   NOT AVBL
STEAMBOAT SPGS MOCLDY    37  33  87 CALM      30.17S
WALDEN         NOT AVBL
$$

COZ006>008-011-301200-
...WEST CENTRAL VALLEYS...

CITY           SKY/WX    TMP DP  RH WIND       PRES   REMARKS
GRAND JUNCTION FAIR      47  36  65 SE5       30.05R
MONTROSE       FAIR      46  31  55 SE9       30.13R
EAGLE          FAIR      37  34  87 CALM      30.22R
RIFLE          FAIR      41  36  82 E5        30.12R
DELTA          FAIR      53  33  46 CALM      30.10R
NUCLA          FAIR      46  30  53 E8        30.13S
$$

COZ017>023-064>068-301200-
...SOUTHWEST COLORADO...

CITY           SKY/WX    TMP DP  RH WIND       PRES   REMARKS
DURANGO        FAIR      37  27  67 N5        30.16R
CORTEZ         FAIR      40  30  67 CALM      30.11R
PAGOSA SPRINGS FAIR      42  26  54 CALM      30.21S
TELLURIDE      FAIR      42  25  50 SE8       30.29S
WOLF CREEK PAS FAIR      37  18  44 S7        30.46S
$$

COZ009-010-012-014-032>034-037-058>063-301200-
...CENTRAL COLORADO...

CITY           SKY/WX    TMP DP  RH WIND       PRES   REMARKS
ASPEN          FAIR      37  29  72 VRB3      30.20S
BUENA VISTA    FAIR      39  28  64 W8        30.26S
COPPER MTN     NOT AVBL
BERTHOUD PASS  FAIR      32  23  69 NW9G18    30.43S WCI  24
COTTONWOOD PAS FAIR      48  21  34 W6        30.33F
GUNNISON       FAIR      36  28  75 CALM      30.28S
KREMMLING      FAIR      34  32  93 CALM      30.24S
LEADVILLE      FAIR      29  23  78 CALM      30.32S
MONARCH PASS   FAIR      37  19  48 MISG      30.53F
SALIDA         FAIR      40  30  66 W5        30.32S
SUNLIGHT       FAIR      41  27  56 CALM      30.38S
WILKERSON PASS FAIR      37  27  65 SW6       30.41F
$$

COZ069>075-301200-
...SAN LUIS VALLEY/SANGRE DE CRISTO MOUNTAINS...

CITY           SKY/WX    TMP DP  RH WIND       PRES   REMARKS
ALAMOSA        FAIR      39  38  96 SE3       30.21S
LA VETA PASS   FAIR      45  28  53 CALM      30.34R
SAGUACHE       FAIR      43  30  61 NW12      30.23R
$$

COZ035-036-038>040-301200-
...NORTHERN COLORADO FRONT RANGE...

CITY           SKY/WX    TMP DP  RH WIND       PRES   REMARKS
DENVER INTL AP FAIR      50  40  68 SW10      30.06F
DMNS CITY PARK   N/A     51  40  66 SE9       30.06F
AURORA         PTCLDY    48  40  73 S7        30.08F
FRONT RANGE AP NOT AVBL
ERIE MUNI ARPT FAIR      43  40  91 CALM      30.06F
BOULDER MUN AP FAIR      46  37  71 CALM      30.05F
CENTENNIAL     FAIR      46  39  76 S7        30.09F
BROOMFIELD     FAIR      48  37  66 SW6       30.07F
FORT COLLINS   FAIR      50  43  76 CALM      30.06F
LONGMONT       FAIR      48  40  74 W3        30.07F
$$

COZ041-046-047-076>085-087-088-301200-
...PIKES PEAK/PALMER DIVIDE AND SOUTHERN FOOTHILLS...

CITY           SKY/WX    TMP DP  RH WIND       PRES   REMARKS
COLO. SPRINGS  FAIR      48  40  73 SW5       30.14R
A. F. ACADEMY  FAIR      39  37  93 N8        30.13F
SCHRIEVER AFB  NOT AVBL
ELLICOTT       NOT AVBL
FALCON         FAIR      44  37  77 W7        30.16S
FORT CARSON    FAIR      47  40  76 W5        30.11S
LIMON          FAIR      40  39  97 N3        30.07F
MONUMENT HILL  FAIR      41  36  81 SW8       30.17S
TRINIDAD       FAIR      54  44  69 W20       30.11S
$$

COZ042>045-048>051-090-091-301200-
...NORTHEAST COLORADO...

CITY           SKY/WX    TMP DP  RH WIND       PRES   REMARKS
GREELEY ARPT   FAIR      46  43  87 CALM      30.05F
AKRON          FAIR      49  46  90 SE7       30.05F
BURLINGTON     FAIR      50  46  86 S7        30.04F
WRAY           FAIR      52  48  87 SW7       30.02F
STERLING       FAIR      50  48  93 SW8       30.02S
HOLYOKE        FAIR      59  52  77 SW12      30.01F
FORT MORGAN    FAIR      49  44  84 SE3       30.05R
$$

COZ086-089-092>099-301200-
...SOUTHEAST COLORADO...

CITY           SKY/WX    TMP DP  RH WIND       PRES   REMARKS
PUEBLO         FAIR      51  45  79 NW6       30.07S
LA JUNTA       FAIR      50  46  86 E6        30.04F
LAMAR          FAIR      45  44  97 SE3       30.03S
SPRINGFIELD      N/A     46  45  96 SW6       30.08R
$$




USA.gov is the U.S. government's official web portal to all federal, state and local government web resources and services.